Regional Weather Roundup
Issued by NWS Little Rock, AR

Home | Current Version | Previous Version | Graphics & Text | Print | Product List | Glossary Off
Versions: 1 2 3 4 5 6 7 8 9 10 11 12 13 14 15 16 17 18 19 20 21 22 23 24 25 26 27 28 29 30 31 32 33 34 35 36 37 38 39 40 41 42 43 44 45 46 47 48 49 50

000
ASUS44 KLZK 210805
RWRLZK

WEATHER ROUNDUP FOR ARKANSAS
NATIONAL WEATHER SERVICE LITTLE ROCK AR
300 AM CDT TUE APR 21 2015

NOTE: "FAIR" INDICATES FEW OR NO CLOUDS BELOW 12,000 FEET WITH NO
SIGNIFICANT WEATHER AND/OR OBSTRUCTIONS TO VISIBILITY.

ARZ001-003-010-029-210900-
NORTHWEST ARKANSAS

CITY           SKY/WX    TMP DP  RH WIND       PRES   REMARKS
FAYETTEVILLE   MOCLDY    40  38  93 S5        29.97S
FORT SMITH     CLEAR     48  41  76 CALM      29.98F
HARRISON       CLEAR     46  33  60 S3        29.95F
BENTONVILLE    PTCLDY    45  34  65 SW3       29.96S
ROGERS         PTCLDY    45  34  65 SW7       29.96F
SILOAM SPGS    MOCLDY    45  30  57 S5        29.97F
HIGHFILL       PTCLDY    44  34  67 SW6       29.95F
$$

ARZ004-005-016-210900-
NORTH CENTRAL ARKANSAS

CITY           SKY/WX    TMP DP  RH WIND       PRES   REMARKS
BATESVILLE     CLEAR     45  36  70 CALM      29.97S
FLIPPIN        CLEAR     46 N/A N/A SW3       29.93F
MTN HOME       CLEAR     42  34  73 S3        29.94F
$$

ARZ040-041-210900-
WEST CENTRAL ARKANSAS

CITY           SKY/WX    TMP DP  RH WIND       PRES   REMARKS
MENA           CLEAR     41  37  87 CALM      30.01F
MOUNT IDA      CLEAR     41  38  89 CALM      29.99S
$$

ARZ009-017-025-026-028-210900-
NORTHEAST ARKANSAS

CITY           SKY/WX    TMP DP  RH WIND       PRES   REMARKS
CORNING          N/A     46  39  76 W8        29.95S
JONESBORO      CLEAR     47  37  68 SW5       29.96S
NEWPORT        CLEAR     49  39  68 SW6       29.98S
WALNUT RIDGE   CLEAR     46  36  66 SW8       29.95S
BLYTHEVILLE    CLEAR     50  37  61 W6        29.95F
$$

ARZ022-023-033-042-044-210900-
CENTRAL ARKANSAS

CITY           SKY/WX    TMP DP  RH WIND       PRES   REMARKS
LITTLE ROCK    CLEAR     47  41  80 SW5       30.00F
N LITTLE ROCK    N/A     50  38  65 W5        30.00F
JACKSONVILLE   CLEAR     42  40  93 CALM      29.99F
SEARCY         CLEAR     42  40  92 CALM      30.00F
HOT SPRINGS    CLEAR     45  41  86 CALM      30.01F
RUSSELLVILLE   CLEAR     42  40  92 CALM      29.99S
CLINTON        FAIR      39  37  93 CALM      30.00F
$$

ARZ036-210900-
EAST ARKANSAS

CITY           SKY/WX    TMP DP  RH WIND       PRES   REMARKS
WEST MEMPHIS   CLEAR     46  44  93 CALM      29.97S
$$

ARZ050-053-066-070-073-210900-
SOUTHWEST ARKANSAS

CITY           SKY/WX    TMP DP  RH WIND       PRES   REMARKS
ARKADELPHIA    FAIR      48  47  97 CALM      30.02S
CAMDEN         CLEAR     45  41  87 CALM      30.03R
TEXARKANA      CLEAR     49  44  83 CALM      30.03S
EL DORADO      CLEAR     47  43  86 CALM      30.03R
DE QUEEN       PTCLDY    43  42  97 CALM      30.01S FOG
$$

ARZ056-057-069-210900-
SOUTHEAST ARKANSAS

CITY           SKY/WX    TMP DP  RH WIND       PRES   REMARKS
PINE BLUFF     FAIR      51  38  60 W3        30.01S
STUTTGART      CLEAR     52  41  66 SW3       30.00S
MONTICELLO     CLEAR     47  42  83 CALM      30.01R

$$




USA.gov is the U.S. government's official web portal to all federal, state and local government web resources and services.